• In Latvia
  • List of Countries
  • For 7 days
  • Water Temperature
  • Satellite Maps
  • Weather Map
  • Weather Widgets
  • user-avatar
    Login

    Hourly Weather Yerevan

    Today, 21 April, Saturday

    Time Temperature Precipitation Wind Pressure Humidity
    00:00 +12°C° 0.4 mm 3 mps 681 mmHg 66%
    01:00 +12°C° 0.6 mm 3 mps 681 mmHg 68%
    02:00 +11°C° 0.6 mm 3 mps 681 mmHg 69%
    03:00 +8°C° 0 mm 4 mps 681 mmHg 70%
    04:00 +9°C° 0.9 mm 3 mps 681 mmHg 71%
    05:00 +9°C° 0.9 mm 3 mps 681 mmHg 73%
    06:00 +9°C° 0.9 mm 3 mps 682 mmHg 74%
    07:00 +9°C° 0.6 mm 3 mps 682 mmHg 72%
    08:00 +10°C° 0.6 mm 3 mps 682 mmHg 70%
    09:00 +10°C° 0.6 mm 2 mps 682 mmHg 68%
    10:00 +10°C° 0.4 mm 2 mps 682 mmHg 66%
    11:00 +12°C° 0.4 mm 2 mps 682 mmHg 65%
    12:00 +12°C° 0.4 mm 2 mps 682 mmHg 63%
    13:00 +13°C° 0.2 mm 2 mps 683 mmHg 62%
    14:00 +13°C° 0.2 mm 2 mps 683 mmHg 60%
    15:00 +14°C° 0.2 mm 2 mps 683 mmHg 59%
    16:00 +13°C° 0.1 mm 2 mps 683 mmHg 59%
    17:00 +13°C° 0.1 mm 1 mps 684 mmHg 59%
    18:00 +13°C° 0.1 mm 1 mps 684 mmHg 59%
    19:00 +12°C° 0.1 mm 1 mps 684 mmHg 61%
    20:00 +12°C° 0.1 mm 2 mps 685 mmHg 64%
    21:00 +10°C° 0.1 mm 2 mps 685 mmHg 66%
    22:00 +10°C° 0.1 mm 2 mps 685 mmHg 67%
    23:00 +9°C° 0.1 mm 2 mps 686 mmHg 68%

    Tomorrow, 22 April, Sunday

    Time Temperature Precipitation Wind Pressure Humidity
    00:00 +10°C° 0.1 mm 1 mps 686 mmHg 69%
    01:00 +10°C° 0 mm 1 mps 686 mmHg 70%
    02:00 +9°C° 0 mm 1 mps 686 mmHg 71%
    03:00 +9°C° 0 mm 1 mps 686 mmHg 72%
    04:00 +9°C° 0 mm 1 mps 686 mmHg 72%
    05:00 +9°C° 0 mm 1 mps 687 mmHg 72%
    06:00 +9°C° 0 mm 1 mps 687 mmHg 72%
    07:00 +10°C° 0 mm 1 mps 687 mmHg 69%
    08:00 +11°C° 0 mm 1 mps 686 mmHg 65%
    09:00 +12°C° 0 mm 1 mps 686 mmHg 62%
    10:00 +13°C° 0 mm 1 mps 686 mmHg 59%
    11:00 +14°C° 0 mm 1 mps 686 mmHg 57%
    12:00 +15°C° 0 mm 1 mps 685 mmHg 55%
    13:00 +15°C° 0 mm 1 mps 685 mmHg 53%
    14:00 +16°C° 0 mm 1 mps 685 mmHg 52%
    15:00 +16°C° 0 mm 1 mps 685 mmHg 51%
    16:00 +16°C° 0 mm 1 mps 684 mmHg 52%
    17:00 +16°C° 0 mm 1 mps 684 mmHg 53%
    18:00 +15°C° 0 mm 1 mps 684 mmHg 54%
    19:00 +15°C° 0 mm 1 mps 684 mmHg 57%
    20:00 +14°C° 0 mm 1 mps 685 mmHg 59%
    21:00 +13°C° 0 mm 1 mps 685 mmHg 62%
    22:00 +12°C° 0 mm 1 mps 685 mmHg 63%
    23:00 +12°C° 0 mm 2 mps 685 mmHg 65%

    Day after tomorrow, 23 April, Monday

    Time Temperature Precipitation Wind Pressure Humidity
    00:00 +12°C° 0 mm 2 mps 685 mmHg 66%
    01:00 +10°C° 0 mm 2 mps 685 mmHg 68%
    02:00 +9°C° 0 mm 2 mps 685 mmHg 69%
    03:00 +9°C° 0 mm 2 mps 684 mmHg 70%
    04:00 +9°C° 0 mm 2 mps 685 mmHg 70%
    05:00 +9°C° 0 mm 2 mps 685 mmHg 69%
    06:00 +9°C° 0 mm 2 mps 685 mmHg 68%
    07:00 +10°C° 0 mm 3 mps 685 mmHg 62%
    08:00 +12°C° 0 mm 3 mps 685 mmHg 56%
    09:00 +14°C° 0 mm 3 mps 685 mmHg 49%
    10:00 +16°C° 0 mm 3 mps 685 mmHg 46%
    11:00 +17°C° 0 mm 3 mps 685 mmHg 42%
    12:00 +18°C° 0 mm 3 mps 685 mmHg 38%
    13:00 +19°C° 0 mm 3 mps 685 mmHg 37%
    14:00 +19°C° 0 mm 3 mps 685 mmHg 35%
    15:00 +20°C° 0 mm 3 mps 684 mmHg 33%
    16:00 +19°C° 0 mm 2 mps 685 mmHg 35%
    17:00 +18°C° 0 mm 2 mps 685 mmHg 37%
    18:00 +18°C° 0 mm 2 mps 685 mmHg 39%
    19:00 +16°C° 0 mm 2 mps 685 mmHg 44%
    20:00 +15°C° 0 mm 2 mps 686 mmHg 48%
    21:00 +13°C° 0 mm 2 mps 687 mmHg 53%
    22:00 +12°C° 0 mm 2 mps 687 mmHg 54%
    23:00 +12°C° 0 mm 2 mps 687 mmHg 56%

    24 April, Tuesday

    Time Temperature Precipitation Wind Pressure Humidity
    00:00 +11°C° 0 mm 1 mps 687 mmHg 58%
    01:00 +11°C° 0 mm 1 mps 687 mmHg 58%
    02:00 +10°C° 0 mm 1 mps 687 mmHg 57%
    03:00 +10°C° 0 mm 1 mps 688 mmHg 57%
    04:00 +10°C° 0 mm 1 mps 688 mmHg 55%
    05:00 +10°C° 0 mm 1 mps 688 mmHg 53%
    06:00 +10°C° 0 mm 1 mps 688 mmHg 51%
    07:00 +12°C° 0 mm 1 mps 689 mmHg 47%
    08:00 +14°C° 0 mm 1 mps 689 mmHg 42%
    09:00 +15°C° 0 mm 2 mps 689 mmHg 38%
    10:00 +17°C° 0 mm 2 mps 689 mmHg 36%
    11:00 +18°C° 0 mm 2 mps 689 mmHg 34%
    12:00 +19°C° 0 mm 2 mps 689 mmHg 32%
    13:00 +19°C° 0 mm 3 mps 689 mmHg 32%
    14:00 +20°C° 0 mm 3 mps 689 mmHg 31%
    15:00 +20°C° 0 mm 3 mps 689 mmHg 31%
    16:00 +20°C° 0 mm 3 mps 689 mmHg 33%
    17:00 +19°C° 0 mm 3 mps 689 mmHg 35%
    18:00 +18°C° 0 mm 3 mps 689 mmHg 37%
    19:00 +17°C° 0 mm 2 mps 689 mmHg 40%
    20:00 +15°C° 0 mm 2 mps 690 mmHg 43%
    21:00 +14°C° 0 mm 1 mps 690 mmHg 46%
    22:00 +14°C° 0 mm 1 mps 691 mmHg 47%
    23:00 +13°C° 0 mm 1 mps 691 mmHg 49%

    25 April, Wednesday

    Time Temperature Precipitation Wind Pressure Humidity
    00:00 +13°C° 0 mm 1 mps 691 mmHg 50%
    01:00 +13°C° 0 mm 1 mps 691 mmHg 50%
    02:00 +12°C° 0 mm 1 mps 691 mmHg 50%
    03:00 +12°C° 0 mm 1 mps 691 mmHg 50%
    04:00 +12°C° 0 mm 1 mps 691 mmHg 50%
    05:00 +12°C° 0 mm 1 mps 692 mmHg 49%
    06:00 +12°C° 0 mm 1 mps 692 mmHg 48%
    07:00 +14°C° 0 mm 1 mps 692 mmHg 45%
    08:00 +16°C° 0 mm 2 mps 692 mmHg 43%
    09:00 +18°C° 0 mm 2 mps 692 mmHg 40%
    10:00 +19°C° 0 mm 2 mps 692 mmHg 38%
    11:00 +20°C° 0 mm 2 mps 692 mmHg 35%
    12:00 +23°C° 0 mm 2 mps 691 mmHg 33%
    13:00 +23°C° 0 mm 2 mps 691 mmHg 32%
    14:00 +24°C° 0 mm 3 mps 691 mmHg 31%
    15:00 +24°C° 0 mm 3 mps 690 mmHg 30%
    16:00 +22°C° 0 mm 3 mps 690 mmHg 33%
    17:00 +23°C° 0 mm 2 mps 690 mmHg 35%
    18:00 +21°C° 0 mm 2 mps 690 mmHg 38%
    19:00 +20°C° 0 mm 2 mps 690 mmHg 40%
    20:00 +18°C° 0 mm 2 mps 691 mmHg 43%
    21:00 +18°C° 0 mm 1 mps 691 mmHg 45%
    22:00 +16°C° 0 mm 1 mps 691 mmHg 47%
    23:00 +16°C° 0 mm 1 mps 691 mmHg 48%

    26 April, Thursday

    Time Temperature Precipitation Wind Pressure Humidity
    00:00 +15°C° 0 mm 1 mps 691 mmHg 49%
    01:00 +15°C° 0 mm 1 mps 691 mmHg 50%
    02:00 +14°C° 0 mm 1 mps 690 mmHg 51%
    03:00 +14°C° 0 mm 1 mps 690 mmHg 52%
    04:00 +14°C° 0 mm 1 mps 690 mmHg 53%
    05:00 +14°C° 0 mm 1 mps 691 mmHg 53%
    06:00 +13°C° 0 mm 0 mps 691 mmHg 54%
    07:00 +16°C° 0 mm 1 mps 691 mmHg 48%
    08:00 +19°C° 0 mm 1 mps 691 mmHg 43%
    09:00 +21°C° 0 mm 1 mps 692 mmHg 37%
    10:00 +22°C° 0 mm 1 mps 691 mmHg 35%
    11:00 +23°C° 0 mm 1 mps 691 mmHg 33%
    12:00 +25°C° 0 mm 2 mps 691 mmHg 31%
    13:00 +25°C° 0 mm 2 mps 691 mmHg 30%
    14:00 +25°C° 0 mm 2 mps 690 mmHg 30%
    15:00 +26°C° 0 mm 2 mps 690 mmHg 29%
    16:00 +25°C° 0 mm 2 mps 690 mmHg 31%
    17:00 +24°C° 0 mm 1 mps 690 mmHg 33%
    18:00 +24°C° 0 mm 1 mps 690 mmHg 36%
    19:00 +22°C° 0 mm 1 mps 690 mmHg 39%
    20:00 +21°C° 0 mm 1 mps 691 mmHg 43%
    21:00 +18°C° 0 mm 2 mps 691 mmHg 47%
    22:00 +18°C° 0 mm 2 mps 691 mmHg 50%
    23:00 +17°C° 0 mm 2 mps 691 mmHg 54%
    Show more